Location: Dixville
(6.3798°N, 10.7426°W)
Time: 14:28:18
(UTC+00:00)

Daily predictions for brighter satellites

Satellite Brightness Start Highest point End
(mag) Time Altitude Azimuth Time Altitude Azimuth Time Altitude Azimuth
ARIANE 5 R/B 4.3 17:41:39 10° WSW 17:46:58 55° SSE 18:32:19 10° E
BREEZE-M DEB (TANK) 4.3 18:35:42 10° NW 18:40:08 88° SW 19:00:50 10° SE
Cosmos 1821 Rocket 4.3 18:39:08 10° NNE 18:44:56 44° E 18:50:49 10° SSE
Hubble Space Telescope 1.2 18:44:44 10° NW 18:48:42 45° NNE 18:52:40 10° ESE
CENTAUR R/B 3.5 18:45:18 10° SSE 18:48:59 19° ESE 18:52:47 10° ENE
COSMO-SKYMED 1 3.7 18:45:32 10° N 18:49:42 49° WNW 18:53:54 10° SSW
H-2A R/B 3.0 18:46:29 10° S 18:50:16 76° WSW 18:54:06 10° NNW
USA 116 3.8 18:50:49 10° N 18:54:17 73° W 18:58:13 10° SSW
Palapa 6 Rocket 4.3 18:49:12 10° WNW 18:55:57 88° NNE 19:03:51 10° ESE
USA 238 DEB 3.8 18:49:53 10° SSW 18:56:32 82° WNW 19:03:12 10° NNE
Cosmos 1626 2.8 18:52:55 10° NNW 18:56:34 58° W 19:00:13 10° S
USA 238 3.8 18:49:59 10° SSW 18:56:39 83° WNW 19:03:19 10° NNE
ASTEX 1 3.5 18:51:43 10° N 18:56:42 90° SE 19:01:42 10° S
Cosmos 1271 Rocket 3.3 18:54:20 10° NNE 18:58:02 36° E 19:01:44 10° SSE
Cosmos 1825 Rocket 3.5 18:55:29 10° N 18:59:51 70° E 19:04:16 10° S
Cosmos 1486 Rocket 4.0 18:54:43 10° N 19:00:00 68° ENE 19:05:16 10° SSE
Cosmos 1300 4.4 18:58:48 10° SE 19:00:54 14° E 19:02:37 11° ENE
Cosmos 1953 Rocket 3.9 18:57:41 10° NNE 19:01:46 42° E 19:05:51 10° SSE
ARIANE 5 R/B 3.3 19:03:17 10° WSW 19:06:16 45° SSE 19:16:39 13° E
BREEZE-M DEB (TANK) 3.8 19:04:43 10° WSW 19:06:55 32° NW 19:10:17 10° NNE
Cosmos 968 Rocket 3.8 19:05:55 10° N 19:10:49 41° ENE 19:15:41 10° SSE
Cosmos 1812 Rocket 4.1 19:08:09 10° SSE 19:12:07 34° E 19:16:05 10° NNE
Cosmos 1242 Rocket 3.6 19:10:13 10° NNE 19:13:11 24° E 19:16:08 10° SE
Cosmos 44 3.8 19:09:06 10° S 19:14:07 44° ESE 19:18:54 10° NE
Cosmos 1703 4.3 19:13:51 10° NNE 19:17:02 24° E 19:20:12 10° SE
GOES 2 Rocket 3.4 19:14:03 10° WNW 19:18:09 61° SSW 19:22:35 11° SE
SEDSat Delta rocket 3.1 19:13:07 10° SW 19:18:18 82° SSE 19:21:26 20° ENE
FengYun 1-2 T 4.2 19:13:46 10° SSE 19:19:22 66° ENE 19:24:57 10° N
YAOGAN 6 2.5 19:17:46 10° SSE 19:21:27 69° E 19:25:07 10° N
Atlas Centaur 2 3.1 19:16:39 10° NNW 19:21:35 27° NNE 19:23:42 20° ENE
YAOGAN 1 2.8 19:17:38 10° SSE 19:21:46 46° ENE 19:25:54 10° N
NOSS 3-2 (A) 3.9 19:18:10 10° SW 19:23:31 53° WNW 19:28:59 10° N
USA 234 3.5 19:20:13 10° NNE 19:26:42 70° NW 19:33:12 10° SW
ISS -0.6 19:26:19 10° W 19:28:08 14° SW 19:29:57 10° SSW
Cosmos 1503 Rocket 3.9 19:25:41 10° N 19:30:49 70° ENE 19:36:00 10° SSE
Cosmos 2285 Rocket 4.0 19:35:12 10° NNW 19:41:36 89° WSW 19:47:57 10° SSE
CZ-2C R/B 3.7 19:39:39 18° NNE 19:43:00 59° ESE 19:47:37 10° S
Meteor 1-11 4.4 19:37:29 10° N 19:43:06 51° E 19:48:41 10° SSE
Cosmos 2297 3.6 19:38:25 10° S 19:44:02 74° ESE 19:48:50 15° NNE
NOSS 3-2 (C) 3.7 19:40:29 10° SW 19:45:52 59° WNW 19:51:25 10° NNE
CZ-4 R/B 2.6 19:44:20 10° S 19:48:10 44° W 19:52:04 10° NNW
SWIFT 2.2 19:44:13 10° WSW 19:48:29 78° SSE 19:49:06 63° E
Cosmos 2344 4.4 19:43:00 10° S 19:50:58 31° ESE 19:51:52 31° ESE
Cosmos 1763 Rocket 4.2 19:48:06 10° S 19:51:59 35° SE 19:51:59 35° SE
Ariane H10 4.1 20:03:08 10° W 20:06:57 85° S 20:09:47 43° E
Centaur D-1AR AC-48 2.9 20:03:58 10° W 20:07:43 31° SSW 20:08:28 29° S
NOAA 11 4.2 20:10:07 10° S 20:15:36 78° WSW 20:21:03 10° NNW
CZ-4C R/B 3.3 20:07:42 10° NNW 20:15:57 74° WSW 20:24:16 10° SSE
ATLAS 3B R/B 3.4 20:18:57 10° SW 20:25:38 49° WNW 20:29:50 22° N
Hubble Space Telescope 2.9 20:26:17 10° W 20:28:44 24° WSW 20:28:44 24° WSW
ARIANE 5 DEB (SYLDA) 3.8 20:25:39 10° WSW 20:33:54 41° S 20:34:05 41° S
ADEOS Rocket 3.6 20:30:34 10° N 20:37:42 62° WNW 20:44:10 10° SSW
CENTAUR R/B 3.9 20:34:39 10° WSW 20:39:08 27° WNW 20:41:24 21° NNW
ATLAS 5 CENTAUR R/B 3.9 20:50:03 10° W 20:57:43 70° N 21:02:22 55° NE
